Voltar ao catálogo

STARLINK-11280

AtivoComunicaçõesVLEO
NORAD 61245·PAYLOAD·🇺🇸 United States

Lançado Sep 25, 2024 de Vandenberg Space Force Base

Loading…

Próximas Passagens (próximas 24 horas)

TLE

AtualizadoSource: CelesTrak SupGP

Época: Sep 15, 2026, 02:34 UTC

1 61245C 24175C   26258.10743056 -.00085337  00000+0 -70272-3 0  2582
2 61245  53.1570 202.3664 0001167  89.7462  92.2022 15.69759725    19

Acompanhe STARLINK-11280 em tempo real com AllMySat

Download on the App Store